[Date Prev][Date Next][Thread Prev][Thread Next] - [Date Index][Thread Index][Author Index]

2 Line ISS Keps 7-15



ISS
1 25544U 98067A   01196.49014037  .00014727  00000-0  15426-3 0  2136
2 25544  51.5697 305.4005 0017075 288.9903 168.8501 15.64503602151504


----
Via the sarex mailing list at AMSAT.ORG courtesy of AMSAT-NA.
To unsubscribe, send "unsubscribe sarex" to Majordomo@amsat.org



AMSAT Top AMSAT Home